TimeEST,TemperatureF,Dew PointF,Humidity,Sea Level PressureIn,VisibilityMPH,Wind Direction,Wind SpeedMPH,Gust SpeedMPH,PrecipitationIn,Events,Conditions,WindDirDegrees,DateUTC
12:55 AM,31.1,23.0,72,30.08,10.0,NNE,5.8,-,N/A,,Overcast,20,2011-12-31 05:55:00
1:55 AM,31.1,24.1,75,30.07,10.0,North,4.6,-,N/A,,Overcast,360,2011-12-31 06:55:00
2:55 AM,30.7,25.3,80,30.06,10.0,North,5.8,-,N/A,,Overcast,360,2011-12-31 07:55:00
3:11 AM,30.2,24.8,80,30.06,10.0,North,5.8,-,N/A,,Overcast,350,2011-12-31 08:11:00
3:55 AM,30.2,26.2,85,30.04,10.0,North,5.8,-,N/A,,Overcast,350,2011-12-31 08:55:00
4:20 AM,30.2,26.6,86,30.01,7.0,NNE,6.9,-,N/A,,Overcast,30,2011-12-31 09:20:00
4:55 AM,30.2,27.3,89,30.00,4.0,North,4.6,-,N/A,,Overcast,350,2011-12-31 09:55:00
5:22 AM,30.2,28.4,93,29.99,2.0,North,6.9,-,N/A,,Overcast,350,2011-12-31 10:22:00
5:40 AM,30.2,28.4,93,29.99,1.0,NNW,8.1,-,N/A,,Overcast,330,2011-12-31 10:40:00
5:55 AM,29.8,27.9,92,29.98,0.5,North,8.1,-,N/A,Fog,Light Freezing Fog,10,2011-12-31 10:55:00
6:17 AM,30.2,28.4,93,30.00,0.2,NW,6.9,-,N/A,Fog,Light Freezing Fog,310,2011-12-31 11:17:00
6:26 AM,30.2,28.4,93,29.99,0.1,North,6.9,-,N/A,Fog,Light Freezing Fog,360,2011-12-31 11:26:00
6:55 AM,30.0,28.8,95,29.98,0.1,NNW,8.1,-,N/A,Fog,Light Freezing Fog,340,2011-12-31 11:55:00
7:46 AM,30.2,30.2,100,29.97,0.1,NNW,5.8,-,N/A,Fog-Rain,Light Freezing Rain,330,2011-12-31 12:46:00
7:55 AM,30.7,29.7,96,29.98,0.2,NNW,6.9,-,0.00,Fog-Rain,Light Freezing Rain,330,2011-12-31 12:55:00
8:13 AM,30.2,30.2,100,29.97,0.8,North,6.9,-,N/A,Rain,Light Freezing Rain,360,2011-12-31 13:13:00
8:55 AM,31.8,31.1,97,29.96,1.5,NNW,4.6,-,0.04,Rain,Light Freezing Rain,330,2011-12-31 13:55:00
9:31 AM,32.0,32.0,100,29.96,1.5,NNW,3.5,-,N/A,Rain,Light Rain,340,2011-12-31 14:31:00
9:55 AM,32.7,32.2,98,29.93,1.5,North,6.9,-,0.03,Rain,Light Rain,360,2011-12-31 14:55:00
10:55 AM,34.0,33.4,98,29.89,1.5,North,4.6,-,0.01,Rain,Light Rain,350,2011-12-31 15:55:00
11:55 AM,34.0,33.4,98,29.86,1.5,NW,9.2,-,0.00,Rain,Light Rain,320,2011-12-31 16:55:00
12:55 PM,34.5,34.3,99,29.83,1.5,North,3.5,-,0.00,,Overcast,10,2011-12-31 17:55:00
1:27 PM,35.6,33.8,93,29.83,3.0,NW,3.5,-,N/A,,Overcast,310,2011-12-31 18:27:00
1:55 PM,35.1,34.9,99,29.82,1.5,Calm,Calm,-,N/A,,Overcast,0,2011-12-31 18:55:00
2:55 PM,35.6,35.4,99,29.83,1.2,WNW,4.6,-,N/A,,Overcast,300,2011-12-31 19:55:00
3:30 PM,35.6,35.6,100,29.83,0.8,NW,5.8,-,N/A,,Overcast,320,2011-12-31 20:30:00
3:55 PM,35.8,35.6,99,29.81,1.2,NNW,8.1,-,N/A,,Overcast,330,2011-12-31 20:55:00
4:07 PM,35.6,35.6,100,29.83,3.0,NNW,5.8,-,N/A,,Overcast,330,2011-12-31 21:07:00
4:55 PM,35.8,35.6,99,29.82,2.0,WNW,4.6,-,N/A,,Overcast,300,2011-12-31 21:55:00
5:15 PM,35.6,35.6,100,29.82,1.5,WNW,4.6,-,N/A,,Overcast,290,2011-12-31 22:15:00
5:40 PM,35.6,35.6,100,29.82,0.2,Calm,Calm,-,N/A,Fog,Fog,0,2011-12-31 22:40:00
5:55 PM,35.8,35.6,99,29.83,0.2,West,3.5,-,N/A,Fog,Fog,270,2011-12-31 22:55:00
6:55 PM,34.2,34.0,99,29.84,0.1,Calm,Calm,-,N/A,Fog,Fog,0,2011-12-31 23:55:00
7:55 PM,32.7,32.4,99,29.84,0.2,WNW,4.6,-,N/A,Fog,Fog,300,2012-01-01 00:55:00
8:35 PM,33.8,33.8,100,29.86,0.1,Calm,Calm,-,N/A,Fog,Fog,0,2012-01-01 01:35:00
8:55 PM,32.9,32.7,99,29.86,0.1,Calm,Calm,-,N/A,Fog,Fog,0,2012-01-01 01:55:00
9:55 PM,31.3,31.1,99,29.87,0.1,Calm,Calm,-,N/A,Fog,Light Freezing Fog,0,2012-01-01 02:55:00
10:19 PM,30.2,30.2,100,29.88,0.5,Calm,Calm,-,N/A,Fog,Light Freezing Fog,0,2012-01-01 03:19:00
10:35 PM,30.2,28.4,93,29.88,1.0,Calm,Calm,-,N/A,,Scattered Clouds,0,2012-01-01 03:35:00
10:55 PM,29.5,29.3,99,29.87,3.0,Calm,Calm,-,N/A,,Partly Cloudy,0,2012-01-01 03:55:00
11:55 PM,31.8,31.6,99,29.88,10.0,West,6.9,-,N/A,,Clear,270,2012-01-01 04:55:00